Lapse_Rate
7.0 6.7 4.9 4.6 4.4 4.1 3.9 3.8 3.8 3.8 4.1 4.1 4.0 4.1 4.2 4.3 4.6 4.7 4.8 5.0 5.2 5.8 6.0 6.1 6.2 6.2 6.1 6.0 6.0 5.8 5.6 5.4 5.8 6.0 6.0 6.1 6.1 6.0 5.7 5.6 6.6 7.3 7.1
7.0 6.6 5.1 4.7 4.5 4.2 4.0 4.1 4.0 3.9 3.9 3.9 3.9 4.1 4.3 4.6 4.7 4.8 5.0 5.3 5.6 5.9 5.9 6.0 6.2 6.1 5.9 5.7 5.7 5.6 5.5 5.3 5.4 5.4 6.0 6.4 6.5 6.4 6.1 5.8 6.0 6.1 5.8
6.7 6.7 6.1 4.9 4.5 4.4 4.3 4.4 4.2 4.1 3.9 3.9 3.8 4.5 4.5 4.6 5.0 5.3 5.5 5.7 5.9 5.9 5.9 5.9 6.1 6.1 5.8 5.6 5.5 5.6 5.6 5.4 5.3 5.2 6.2 8.8 7.4 6.5 6.4 6.1 6.0 6.2 6.1
6.7 6.9 6.8 5.1 4.9 4.8 4.7 4.5 4.4 4.3 3.9 3.9 4.3 4.3 4.7 4.8 5.3 5.3 5.7 5.7 5.8 5.9 6.0 6.0 6.0 5.8 5.4 5.2 5.2 5.3 5.3 5.0 4.9 6.3 7.6 9.0 8.1 6.5 6.3 6.2 6.1 6.0 6.2
6.3 6.9 6.7 5.3 5.2 5.1 4.9 4.7 4.3 4.1 4.5 4.1 4.7 4.5 4.9 5.0 5.0 5.2 5.6 5.6 5.8 6.0 6.3 6.1 5.7 5.1 5.0 5.0 4.9 4.9 4.8 4.7 5.3 7.3 8.5 8.4 9.4 7.0 6.6 6.7 6.7 6.2 6.0
6.1 6.8 6.1 5.5 5.4 5.3 5.1 4.6 4.2 4.0 4.2 4.5 4.6 4.6 5.2 5.1 5.2 5.3 5.6 5.8 5.9 6.1 6.2 5.9 5.3 5.2 5.2 5.0 4.9 4.7 4.6 5.0 6.6 7.7 8.2 7.2 8.3 7.0 6.8 6.6 6.7 6.7 6.5
5.1 6.4 6.1 6.1 6.3 6.0 5.2 4.4 4.2 4.1 4.3 4.6 4.4 4.9 5.2 5.2 5.3 4.9 5.1 5.5 5.7 5.8 5.9 5.7 5.2 5.2 5.4 5.2 4.8 4.7 4.8 5.3 7.4 7.6 8.8 9.1 8.5 7.3 7.2 7.0 6.7 6.7 6.6
3.2 4.2 5.4 6.4 5.7 6.3 5.8 4.6 4.2 4.3 4.2 4.3 4.2 4.9 4.8 5.1 5.1 5.2 5.2 5.2 5.2 5.4 5.6 5.7 5.6 5.6 5.6 5.5 5.0 5.2 5.2 6.1 7.7 7.8 8.4 9.4 7.7 7.7 7.5 7.3 7.2 7.3 7.1
3.4 3.3 3.8 4.6 4.5 6.8 7.4 4.6 4.5 4.5 4.0 3.9 4.3 4.7 4.6 5.0 5.0 4.9 5.3 5.5 5.5 5.3 5.8 6.0 5.9 5.4 5.2 4.8 5.0 5.3 5.5 5.6 7.5 7.8 8.6 9.5 8.2 8.1 7.8 7.7 7.4 7.3 7.4
3.2 3.1 3.4 3.5 3.7 4.1 6.0 5.8 5.1 4.1 3.7 3.9 4.4 4.6 5.0 5.2 5.0 4.9 5.0 5.3 5.7 5.6 5.6 5.8 5.6 5.0 4.6 4.4 4.4 4.7 5.1 5.5 7.1 7.8 8.6 9.2 9.0 8.8 7.9 7.9 7.9 8.0 7.9
4.0 3.4 2.6 4.1 4.6 5.1 5.9 5.8 5.1 4.3 4.2 4.5 4.5 4.6 4.9 5.8 5.9 5.8 5.0 5.2 5.3 5.4 5.1 5.1 4.6 4.5 4.5 4.2 4.1 4.7 5.7 6.6 7.3 7.8 8.5 7.4 9.1 9.0 8.3 7.9 7.9 7.8 7.9
4.1 3.8 4.6 3.6 2.7 4.9 5.3 5.5 5.2 5.4 4.9 4.7 4.8 4.7 5.1 5.3 5.2 5.6 5.1 4.5 4.4 4.4 4.3 4.2 4.1 4.3 5.4 5.9 5.8 5.4 5.8 5.8 6.7 7.2 7.8 6.9 8.3 9.4 8.1 8.1 8.1 8.0 7.8
4.2 4.2 5.6 4.7 4.9 5.4 5.1 4.4 4.9 5.4 4.3 4.4 4.1 4.5 4.9 4.8 4.5 4.5 4.3 3.9 4.7 4.5 5.4 5.1 5.4 5.5 5.1 5.7 5.3 5.1 5.3 6.0 6.6 7.1 6.6 6.5 7.6 8.9 8.5 7.9 8.2 8.2 8.1
6.6 6.0 4.6 4.2 4.1 4.2 4.8 5.3 5.0 4.9 5.2 5.0 4.9 4.5 4.3 4.3 3.7 4.2 4.8 4.8 4.5 4.8 4.6 4.8 5.0 4.4 4.5 4.4 4.6 4.7 5.0 6.0 6.7 7.0 6.7 6.4 7.2 8.7 9.4 7.8 8.1 8.4 8.4
6.1 5.8 6.2 6.4 6.3 6.6 6.5 5.3 5.1 5.4 5.4 5.4 5.3 4.8 4.7 4.8 4.4 4.5 4.3 4.6 4.6 4.6 5.1 5.1 5.0 4.8 4.5 4.6 4.7 5.0 5.1 5.0 5.4 6.8 7.0 5.7 6.9 8.3 8.7 8.3 9.0 8.8 9.0
6.9 6.2 6.3 6.1 6.2 6.7 6.2 5.4 5.2 4.9 5.1 5.3 5.2 4.2 4.2 4.5 3.9 4.3 4.3 4.7 4.6 4.9 4.6 4.8 4.9 5.2 5.2 5.4 5.1 4.9 4.9 5.0 5.1 5.5 6.5 6.4 5.7 7.1 8.2 8.4 8.9 9.4 9.0
6.2 6.2 5.4 5.5 5.6 5.7 5.1 4.9 4.7 5.2 5.7 5.5 4.8 3.9 4.0 3.9 4.1 4.5 5.0 4.7 4.2 3.9 3.7 3.7 4.2 4.6 5.3 5.3 5.3 5.0 5.5 5.5 5.9 5.9 6.6 6.9 7.1 5.9 7.0 7.5 7.7 7.9 8.2
5.5 5.5 5.6 6.2 6.0 5.7 5.2 5.0 4.8 5.5 5.5 5.5 4.9 4.6 4.2 4.6 4.3 4.4 4.7 4.4 3.9 3.8 4.1 4.7 5.3 5.9 5.8 6.0 5.9 6.0 6.2 6.7 6.8 6.9 6.8 7.2 7.4 7.9 7.2 6.7 7.2 7.8 8.1
5.7 5.2 5.7 5.7 5.8 5.1 4.8 5.0 5.3 4.8 5.2 4.7 4.3 4.7 4.2 4.3 4.2 5.0 5.0 3.7 3.5 3.9 4.4 5.2 5.3 6.0 6.0 6.0 6.4 6.3 6.3 7.1 7.2 7.4 7.3 7.1 6.9 7.6 8.0 6.1 6.1 6.8 7.4
5.7 5.6 5.9 5.8 5.9 5.4 5.1 4.6 4.3 4.8 4.6 3.7 3.9 4.7 4.3 4.6 4.3 4.6 3.8 3.2 3.6 4.4 4.8 5.2 5.4 4.8 5.6 6.4 6.8 6.2 6.1 6.3 6.7 7.2 7.4 7.4 7.2 7.0 7.6 7.7 8.2 7.7 6.8
5.5 5.7 5.7 5.5 5.3 5.2 4.9 5.3 5.1 5.4 4.3 4.3 3.9 4.0 4.1 4.6 4.2 4.0 3.8 3.2 4.0 5.3 5.4 4.8 5.0 5.0 5.2 5.0 6.3 6.4 6.2 6.2 6.9 7.1 7.1 7.5 7.6 7.7 7.6 7.9 8.4 8.6 8.6
5.8 5.9 6.0 5.7 5.0 5.1 6.1 5.4 5.3 4.8 3.9 3.2 3.6 3.7 4.0 3.5 3.7 3.6 3.7 4.2 4.2 4.7 4.4 4.6 4.9 5.1 4.8 4.1 6.7 6.7 8.3 8.2 7.6 7.3 6.8 7.1 7.0 7.7 8.0 7.8 7.8 7.9 8.3
5.3 4.9 5.3 5.7 5.2 5.0 5.2 3.8 2.9 2.4 3.0 3.8 3.8 3.8 3.0 2.9 3.2 3.3 3.4 3.9 3.7 4.2 4.8 4.7 5.0 5.4 5.4 3.9 4.3 6.8 7.9 7.9 7.9 7.6 7.4 7.8 7.8 8.4 8.2 8.2 8.0 7.9 8.1
4.9 5.2 5.5 5.0 4.9 5.0 4.0 4.7 4.4 4.8 4.6 4.7 4.2 3.5 3.1 2.4 2.3 3.0 3.2 3.3 3.4 3.8 4.5 4.6 4.8 5.5 5.6 5.6 4.6 5.0 5.8 7.1 8.3 8.2 8.8 8.4 8.3 8.9 8.7 9.3 9.0 8.4 7.9
4.8 4.4 4.8 5.0 4.9 4.8 4.3 4.7 4.9 4.4 4.5 3.7 2.3 1.3 1.8 1.9 2.4 2.6 2.6 2.8 3.2 3.6 3.6 3.8 4.2 4.7 4.8 4.0 6.2 6.1 6.6 7.0 7.1 8.6 8.3 8.9 9.4 9.8 9.6 9.1 8.9 8.7 8.1
4.2 4.2 4.2 4.6 5.0 4.7 4.0 3.6 4.2 3.9 2.9 3.5 3.0 2.4 2.3 2.4 2.3 2.3 2.8 3.1 3.3 3.6 2.6 1.4 2.4 3.9 4.2 6.2 6.5 6.8 8.0 8.7 8.8 8.8 8.7 8.8 8.9 9.5 9.7 9.2 9.0 8.8 8.0
Wind_Speed
17 24 21 20 21 24 26 27 28 28 27 27 26 26 25 25 23 22 21 22 22 21 20 18 18 20 22 23 22 22 22 21 21 19 21 22 21 20 20 20 18 20 21
20 26 23 23 22 23 24 25 26 28 28 27 27 25 25 24 23 22 21 22 21 21 21 21 22 23 23 22 21 21 22 21 19 19 19 22 21 20 20 21 20 20 19
19 26 26 23 22 23 24 23 24 26 27 28 28 25 25 25 23 22 21 21 21 22 24 25 24 24 23 21 20 22 21 20 17 17 16 19 19 19 20 20 20 21 20
22 25 26 23 25 25 25 25 26 26 27 28 27 27 25 24 22 23 21 21 21 22 23 24 24 23 22 20 20 20 19 18 16 15 17 17 18 18 19 19 19 19 19
18 23 24 25 25 25 26 27 27 27 25 27 26 27 24 24 23 22 21 20 21 22 22 22 21 22 21 22 20 19 17 16 16 16 16 15 15 17 17 15 16 16 18
16 22 25 26 25 24 24 25 26 27 25 25 27 27 23 24 23 21 20 20 20 20 21 20 20 21 23 21 21 18 17 17 15 15 14 14 16 15 15 15 15 16 17
11 17 22 23 24 20 23 24 24 24 24 23 26 24 22 21 19 20 19 18 18 18 18 18 19 21 21 19 18 17 16 16 14 14 14 14 16 16 16 16 16 17 18
13 15 17 22 20 15 19 21 20 21 23 24 24 22 21 17 17 18 18 17 17 16 16 18 19 20 19 18 17 17 16 14 13 13 13 14 15 15 16 17 17 16 17
17 20 23 25 29 14 13 16 17 18 22 23 22 20 20 17 17 17 18 18 18 17 18 19 19 19 18 18 18 17 16 15 13 12 11 11 14 14 15 15 15 16 16
10 15 21 26 26 22 15 11 15 20 21 23 20 21 20 16 16 16 17 17 18 19 20 18 20 21 18 17 16 16 15 13 11 10 9 11 11 11 12 13 14 14 16
10 15 22 20 17 15 18 10 12 16 17 18 19 21 18 12 12 13 14 15 16 20 19 21 21 20 20 19 16 14 13 8 7 7 8 13 8 9 10 11 12 14 15
13 14 16 15 14 15 14 8 10 12 13 11 14 15 12 9 10 10 11 14 20 22 21 21 19 17 14 12 11 12 11 9 7 7 8 11 10 6 8 9 11 13 13
13 14 12 17 18 16 12 5 3 6 8 10 13 11 12 9 8 10 10 12 14 15 14 14 13 12 13 10 11 10 9 10 8 7 10 10 9 6 7 9 11 11 12
15 13 13 17 18 15 15 11 9 9 11 10 9 10 9 8 8 9 12 13 11 10 12 11 11 12 13 12 11 11 10 8 6 7 10 10 8 5 6 10 10 9 10
9 12 16 17 16 15 12 8 9 12 11 11 10 9 8 10 10 11 11 11 11 10 10 10 10 11 11 10 10 9 8 8 7 7 7 13 11 6 7 8 7 7 7
14 16 17 13 14 12 8 11 10 8 9 8 8 8 10 11 12 11 10 10 9 9 10 10 10 9 9 8 8 8 7 7 8 7 6 11 18 15 11 8 6 7 7
14 15 16 13 10 8 7 8 7 7 7 8 8 11 11 12 13 12 10 9 9 10 12 11 9 9 8 7 8 6 6 6 7 8 6 7 9 17 16 13 10 8 7
13 14 13 10 10 9 9 7 6 7 6 7 10 11 12 13 13 12 10 9 10 9 9 8 6 5 4 4 4 4 5 5 6 7 8 7 7 7 10 11 11 9 8
14 12 13 12 10 9 9 9 8 6 6 7 10 11 13 12 12 10 10 12 11 8 7 6 4 3 4 3 4 4 4 4 4 6 7 8 8 7 6 10 10 10 8
14 12 13 11 11 9 8 7 6 6 6 7 8 11 14 12 12 11 10 12 10 8 6 5 4 4 3 3 4 4 3 3 4 4 4 5 5 5 5 4 3 4 6
13 14 14 13 11 9 6 5 4 6 5 5 9 11 13 13 12 12 11 10 9 5 5 6 4 4 3 2 4 3 3 3 3 4 3 2 3 3 3 3 2 2 2
16 16 15 16 15 13 9 6 4 5 4 5 9 10 12 13 12 11 11 9 9 6 6 5 4 3 2 2 3 1 3 4 4 5 4 3 2 0 1 1 1 2 2
17 16 15 15 14 13 13 8 5 6 4 4 6 6 10 13 14 13 12 10 9 7 4 4 5 6 6 2 2 1 3 3 1 3 5 3 3 3 2 2 1 3 2
18 15 16 16 16 14 14 12 12 9 8 7 7 7 11 13 15 16 14 12 10 8 6 5 6 4 3 4 3 2 1 1 3 3 3 3 4 4 4 6 4 3 3
16 16 15 16 16 15 16 15 12 10 7 6 6 10 9 11 13 15 15 15 14 12 11 10 5 7 5 3 4 3 3 2 2 4 7 4 3 4 6 6 6 6 5
15 15 15 17 16 15 15 14 14 12 11 9 11 10 9 8 10 13 14 14 14 14 13 12 12 7 5 4 3 4 3 3 3 4 5 6 6 6 5 6 7 7 5
Wind_Direction
157 155 151 143 135 130 127 126 125 123 123 121 119 116 113 112 111 108 105 103 101 101 99 101 100 101 100 97 90 88 84 76 73 75 74 73 69 65 63 59 59 62 58
149 154 151 147 141 134 129 128 125 124 124 122 117 117 115 113 111 108 109 105 101 96 97 101 99 100 101 99 92 83 81 76 74 73 77 78 68 66 63 62 56 61 61
147 152 153 147 141 134 130 129 128 128 127 123 118 120 116 114 112 111 107 104 100 96 99 99 99 104 104 95 84 79 78 80 76 74 74 72 70 65 63 61 59 59 58
144 151 152 144 140 138 137 136 134 131 127 124 123 118 117 113 112 109 109 106 100 96 99 100 101 102 100 92 90 90 88 84 78 78 74 73 73 71 70 67 64 61 63
141 150 149 142 141 141 139 138 133 128 128 121 126 118 119 118 114 112 113 106 98 93 94 100 104 106 105 102 98 94 90 87 78 71 69 67 68 65 64 63 68 66 60
136 148 148 142 139 138 136 131 128 123 124 126 125 122 126 121 117 113 108 104 99 98 97 99 109 113 112 107 99 96 91 83 75 70 66 65 63 59 62 64 63 65 64
122 147 149 138 127 131 127 125 122 120 126 128 121 124 124 118 121 111 107 102 104 103 101 100 109 113 106 101 100 97 92 84 77 72 66 60 59 59 58 61 64 66 65
105 95 114 107 107 110 109 112 118 127 124 125 121 128 123 125 117 109 102 100 100 104 105 98 101 105 101 98 94 90 84 83 74 69 63 61 62 63 62 58 59 58 61
102 106 102 106 102 96 113 93 113 123 121 121 126 130 123 126 114 104 102 101 100 100 112 104 102 100 96 90 85 85 83 76 78 72 63 59 70 65 68 69 68 68 65
90 103 111 110 109 118 90 95 124 117 116 118 131 129 129 126 113 108 102 102 103 104 110 107 96 92 91 85 81 78 77 70 71 72 67 55 74 70 68 71 71 70 70
98 108 114 107 107 104 99 120 114 106 112 124 128 131 128 129 119 112 111 108 103 103 106 100 95 94 88 81 76 75 73 63 65 60 60 34 59 83 82 77 72 69 66
112 120 124 109 93 85 79 91 106 136 109 139 138 132 123 125 112 110 102 104 102 101 98 96 93 89 84 83 78 65 65 64 58 56 47 33 34 82 102 90 87 82 76
121 126 124 113 102 107 109 68 63 127 156 151 137 132 131 127 120 113 118 104 105 104 104 101 97 91 90 91 81 75 69 63 57 55 40 38 33 36 109 101 92 85 81
140 134 131 133 135 145 146 181 180 176 175 150 138 134 131 122 111 121 109 111 107 106 109 106 103 101 93 91 86 76 71 70 63 64 48 48 47 39 108 112 99 92 88
165 153 158 154 161 174 184 171 185 183 157 154 153 146 143 137 130 120 119 119 119 123 121 115 107 97 93 84 79 84 78 75 70 68 63 52 57 57 101 118 105 103 100
164 166 176 182 183 185 177 181 181 162 152 156 158 154 155 144 134 132 134 129 126 133 124 113 100 98 95 93 89 81 85 76 70 72 77 68 60 56 70 74 75 74 88
172 171 179 187 190 190 196 189 178 171 167 170 162 151 151 145 149 144 142 133 132 127 110 106 100 105 101 93 96 94 87 72 72 70 78 78 75 60 63 67 66 54 39
185 197 190 189 191 193 193 185 171 178 184 177 161 155 158 159 152 152 148 131 131 119 120 116 113 101 102 110 121 108 99 89 86 79 76 78 74 76 69 61 54 43 30
195 192 201 198 196 193 192 181 177 171 176 155 159 161 165 157 161 159 147 135 131 126 115 116 102 113 123 133 129 117 91 92 90 92 91 84 77 71 68 63 59 50 39
195 193 196 195 197 192 176 163 159 167 152 164 168 171 164 163 162 157 132 127 126 127 126 128 124 100 104 144 132 123 116 107 118 121 113 108 97 89 87 67 42 50 44
200 199 198 195 193 179 169 174 182 186 168 177 179 175 167 163 160 145 133 131 141 144 134 136 131 130 122 154 155 158 149 137 167 160 161 147 101 81 101 89 72 12 28
204 204 201 199 186 188 183 179 180 175 161 182 170 166 164 154 149 142 143 152 153 138 140 160 172 147 116 187 197 214 229 198 205 199 196 202 190 230 98 102 65 32 352
209 204 204 204 194 192 185 157 120 110 129 168 164 153 157 155 149 149 156 154 142 135 147 159 189 191 171 172 209 223 227 266 253 184 212 225 219 241 299 295 301 6 357
207 205 204 198 196 197 184 185 182 189 180 196 179 162 159 163 155 155 156 150 144 149 153 162 185 187 193 160 148 160 177 275 278 268 196 229 246 267 305 309 288 326 324
204 205 203 200 197 193 192 194 191 189 181 162 159 150 159 160 165 163 160 157 157 160 159 157 160 184 187 167 182 171 195 183 205 265 290 283 268 268 295 289 291 304 310
206 204 202 202 203 195 193 190 195 190 174 170 173 171 171 166 169 173 169 163 162 162 165 168 166 190 177 150 172 180 212 236 248 260 275 285 287 289 294 281 274 284 295